Akron, CO

1:48 AM MDT on June 25, 2017 (GMT -0600)
Akron-Washington County

Weather History for KAKO - November, 2012

Change the Weather History Date:

Sunday, November 11, 2012

  Actual Average Record
Temperature  
Mean Temperature 17 °F 40 °F  
Max Temperature 24 °F 52 °F 75 °F (1973)
Min Temperature 10 °F 27 °F -3 °F (1940)
Degree Days  
Heating Degree Days 48    
Month to date heating degree days 212  
Cooling Degree Days 0    
Month to date cooling degree days 0  
Moisture  
Dew Point 10 °F    
Average Humidity 75    
Maximum Humidity 88    
Minimum Humidity 62    
Precipitation  
Precipitation 0.00 in 0.02 in 0.26 in (1982)
Month to date precipitation 0.13 0.22  
Year to date precipitation 7.85 15.98  
Sea Level Pressure  
Sea Level Pressure 30.12 in    
Wind  
Wind Speed 8 mph (WNW)    
Max Wind Speed 18 mph    
Max Gust Speed 23 mph    
Visibility 10 miles    
Events      
T = Trace of Precipitation, MM = Missing Value Source: NWS Daily Summary

Daily Weather History Graph

Daily Weather History Graph

Search for Another Location

Airport or City:

Trip Planner

Search our weather history database for the weather conditions in past years. The results will help you decide how hot, cold, wet, or windy it might be!

Date:

Astronomy

Nov. 11, 2012 Rise Set
Actual Time 6:34 AM MST 4:39 PM MST
Civil Twilight 6:05 AM MST 5:07 PM MST
Nautical Twilight 5:32 AM MST 5:40 PM MST
Astronomical Twilight 5:00 AM MST 6:12 PM MST
Moon 3:50 AM MST (11/11) 3:04 PM MST (11/11)
Length of Visible Light 11h 02m
Length of Day
10h 04m
Waning Crescent, 7% of the Moon is Illuminated
Nov 11
Waning Crescent
Nov 13
New
Nov 20
First Quarter
Nov 28
Full
Dec 6
Last Quarter

Hourly Weather History & Observations

Time (MST) Temp. Windchill Dew Point Humidity Pressure Visibility Wind Dir Wind Speed Gust Speed Precip Events Conditions
12:53 AM 17.1 °F 2.5 °F 12.0 °F 81% 29.94 in 10.0 mi NNW 15.0 mph - N/A   Scattered Clouds
1:53 AM 15.1 °F 4.2 °F 10.9 °F 84% 29.99 in 10.0 mi North 8.1 mph - N/A   Mostly Cloudy
2:29 AM 15.8 °F 6.1 °F 10.4 °F 79% 29.89 in 10.0 mi NNW 6.9 mph - N/A   Overcast
2:53 AM 14.0 °F 3.9 °F 10.0 °F 84% 30.01 in 10.0 mi NW 6.9 mph - N/A   Mostly Cloudy
3:53 AM 12.9 °F -0.2 °F 8.1 °F 81% 30.02 in 10.0 mi NNW 10.4 mph - N/A   Clear
4:53 AM 10.9 °F 1.4 °F 7.0 °F 84% 30.05 in 10.0 mi NW 5.8 mph - N/A   Clear
5:53 AM 10.9 °F 2.9 °F 6.1 °F 81% 30.06 in 10.0 mi NNW 4.6 mph - N/A   Partly Cloudy
6:07 AM 12.2 °F 1.7 °F 6.8 °F 79% 29.91 in 10.0 mi NNW 6.9 mph - N/A   Mostly Cloudy
6:53 AM 12.9 °F 6.9 °F 7.0 °F 77% 30.09 in 10.0 mi NW 3.5 mph - N/A   Overcast
7:53 AM 14.0 °F 5.1 °F 8.1 °F 77% 30.13 in 10.0 mi WSW 5.8 mph - N/A   Overcast
9:18 AM 15.8 °F 5.1 °F 8.6 °F 73% 29.99 in 10.0 mi West 8.1 mph - N/A   Scattered Clouds
9:53 AM 16.0 °F 8.8 °F 8.1 °F 71% 30.15 in 10.0 mi WNW 4.6 mph - N/A   Clear
10:53 AM 18.0 °F 6.9 °F 10.9 °F 74% 30.16 in 10.0 mi WSW 9.2 mph - N/A   Clear
11:53 AM 19.9 °F 11.1 °F 10.9 °F 68% 30.14 in 10.0 mi WSW 6.9 mph - N/A   Clear
12:53 PM 21.0 °F 10.6 °F 12.9 °F 71% 30.13 in 10.0 mi WSW 9.2 mph - N/A   Clear
1:53 PM 23.0 °F 14.7 °F 14.0 °F 68% 30.14 in 10.0 mi West 6.9 mph - N/A   Clear
2:53 PM 23.0 °F 14.7 °F 15.1 °F 72% 30.16 in 10.0 mi West 6.9 mph - N/A   Clear
3:53 PM 23.0 °F - 14.0 °F 68% 30.19 in 10.0 mi Calm Calm - N/A   Clear
4:53 PM 21.0 °F - 15.1 °F 78% 30.23 in 10.0 mi Calm Calm - N/A   Mostly Cloudy
5:53 PM 19.0 °F 13.9 °F 14.0 °F 81% 30.26 in 10.0 mi SW 3.5 mph - N/A   Clear
6:53 PM 17.1 °F 5.8 °F 10.9 °F 77% 30.30 in 10.0 mi WSW 9.2 mph - N/A   Clear
8:53 PM 19.0 °F 8.2 °F 10.0 °F 68% 30.32 in 10.0 mi WSW 9.2 mph - N/A   Clear
9:53 PM 19.0 °F 5.6 °F 9.0 °F 65% 30.32 in 10.0 mi WSW 13.8 mph - N/A   Clear
11:53 PM 19.0 °F 8.2 °F 7.0 °F 59% 30.34 in 10.0 mi West 9.2 mph - N/A   Clear